sat.trackr.live / text

‹ back to catalog

STARLINK-4523

NORAD 53389 · 2022-097B

PAYLOAD ACTIVE UNKNOWN

§ Identity

Operator
Country
US
Launch date
2022-08-10
Launch site
AFETR
Launch vehicle
Mass (kg)
RCS (m²)

Purposes: comms

External: N2YO · Heavens-Above · Gunter

§ Orbital elements

Epoch: 2026-05-25T03:46:09.585696Z

Period
95.43 min
Inclination
53.2137°
Eccentricity
0.0001263
Mean motion
15.08913604 rev/d
Perigee alt
538.6 km
Apogee alt
540.4 km
Semi-major
6,917.7 km
B*
3.3121e-4
RAAN
140.8436°
Arg perigee
104.2967°
Mean anomaly
255.8165°
Rev number
21,021

§ Raw data

STARLINK-45231 53389U 22097B   26145.15705539  .00004998  00000+0  33121-3 0  99932 53389  53.2137 140.8436 0001263 104.2967 255.8165 15.08913604210213

JSON: /api/v1/satellites/53389 · /tle

For live sub-satellite position, see the globe view (requires WebGL).

§ Visibility from observer

Set your observer location to see the next 7 days of passes ≥ 10°. The values pass through the URL so the page stays shareable.

No JS? Fill the form by hand. The geolocation button needs JavaScript.